Location: Banksville Park
(38.5557°N, 75.1182°W)
Time: 02:22:43
(UTC+00:00)

Cosmos 1437 - Pass Details

Date: 19 September 2020
Orbit: 365 x 369 km, 81.2° (Epoch: 30 October)

Event Time Altitude Azimuth Distance (km) Brightness Sun altitude
Rises 00:15:51 0° 345° (NNW) 2,255 6.9 -14.9°
Reaches altitude 10° 00:17:53 10° 339° (NNW) 1,398 5.9 -15.3°
Maximum altitude 00:20:48 47° 264° (W) 510 3.6 -15.9°
Drops below altitude 10° 00:23:43 10° 189° (S) 1,384 5.3 -16.4°
Enters shadow 00:25:03 - 184° (S) 1,945 6.0 -16.7°
